Showing default

ICEYE-X30, 56947

Orbit data source: Space-Track

ICEYE-X30, 56947 is a payload satellite owned by ICEYE US (US) in SSO that was launched on Mon, 12 Jun 2023 UTC via an FALCON 9 launch vehicle from the Air Force Western Test Range (AFWTR). Payload-class satellites include a variety of spacecraft equipped with specific instruments for various scientific and technological missions. These include communications satellites like Starlink; space stations such as the ISS; scientific satellites like the Hubble; Earth observation satellites from companies like Planet Labs, Umbra, and HawkEye 360; GPS; miniature CubeSats for education and research; and military/defense satellites.

Loading next visibility...
Identifier
56947, 2023-084R
Orbit
SSO
Country
Flag of USUS
Related business
Manufacturer
ICEYE
Mission
Operational Commercial Radar Imaging
Bus & Motor
ICEYE, Unknown motor
Mass
90 kg wet, 89 kg dry
Launch date (UTC)
2023-06-12 (3 years ago)
Launch vehicle
FALCON 9
Launch site
Air Force Western Test Range (AFWTR)
Object type
Payload
Rocket body
Debris
Shape & HBR
Box + 1 Pan, 1.6 m
Radar Cross Section
0.825 m², Medium (>0.1 m² and < 1m²)

Expand to show TLE details & history
Last TLE update: 20 hours ago

TLE from 20 hours ago
0 ICEYE-X30
1 56947U 23084R   26099.99021957  .00130869  00000-0  67181-3 0  9999
2 56947  97.5709 254.1561 0005171 213.1724 146.9220 15.80862720158151
Epoch: 2026-04-09T23:45Z
TLE epoch observation values (Epoch: 2026-04-09T23:45:54.970Z)
Latitude
-0.00004°
Longitude
59.44676°
Altitude
334.074 km
Speed
7.706 km/s
True Right ascension
16h 56m 37s
True Declination
0° 00' 00"
Sunlit
Object was in full shadow at epoch
Visualization orbit readout
Latitude
Unknown
Longitude
Unknown
Altitude
Unknown
Speed
Unknown
Apparent Right ascension
Unknown
Apparent Declination
Unknown
Sunlit
N/A
Visualization observer readout
Local Sidereal Time
01:57:24
Azimuth
Unknown
Elevation
Unknown
Doppler factor
Unknown
Orbital elements
Apogee altitude
328.358 km
Perigee altitude
321.426 km
Semi-major axis
6,703.029 km
Eccentricity
0.00052
Inclination
97.5709°
RAAN
254.1561°
Arg. of periapsis
213.1724°
True anomaly
146.95432°
Mean anomaly
146.922°
Eccentric anomaly
146.93816°
Mean motion
3.95491 °/min
Orbital period
91.03 mins
BSTAR
0.00067181
Loading maneuver chart data...
Computing Atmospheric mass density...

Documentation

Showing up to 5 results
|